SCP
-0 0 0 0 0 0 0 0 0 0 0 -0 -0 -0 -0 0 0 0 0 0 0 0 0 0 0 0 0 0 0 0 0 -0 0
-0 0 0 0 0 0 0 0 0 0 0 0 0 0 -0 0 0 0 0 0 0 0 0 0 0 0 0 0 0 0 0 -0 -0
-0 0 0 0 0 0 0 0 0 -0 0 0 0 0 0 0 0 0 -0 -0 -0 0 0 0 0 0 0 0 0 0 0 0 0
0 0 0 0 0 0 0 0 0 0 0 0 0 -0 0 0 0 0 0 -0 -0 0 0 0 -0 -0 -0 0 0 0 0 0 0
-0 0 0 0 0 0 0 0 0 0 0 0 0 0 0 0 0 0 0 0 0 0 0 0 0 0 0 0 -0 0 0 0 0
-0 -0 -0 -0 0 0 0 0 1 0 0 0 0 0 0 0 0 0 0 0 0 0 0 0 0 0 0 0 0 0 0 0 0
0 -0 -0 0 0 -0 0 0 0 0 0 0 0 0 0 0 0 0 0 0 0 0 0 0 0 0 0 0 0 0 0 0 0
0 -0 -0 -0 0 0 -0 0 0 0 0 1 1 0 0 0 0 0 0 0 0 0 0 0 0 0 0 0 0 0 0 0 0
-0 -0 -0 -0 0 0 0 0 0 0 0 1 1 0 0 0 0 0 1 1 0 0 0 0 0 0 1 0 0 0 0 0 0
-0 -0 -0 -0 -0 0 0 0 -0 -0 -0 0 0 0 0 0 0 1 1 1 1 1 0 0 1 1 1 1 0 0 0 0 0
0 0 0 0 0 0 0 0 0 0 0 0 -0 0 1 0 1 1 0 0 0 1 1 1 1 1 1 1 0 0 0 0 0
0 0 0 0 0 0 0 0 0 0 0 0 0 0 0 0 1 1 0 0 0 0 0 0 0 0 0 0 0 0 0 0 0
0 0 0 0 0 0 0 0 0 0 0 0 0 0 0 0 0 0 0 0 0 0 0 0 0 0 0 0 0 0 0 0 0
0 0 0 0 0 0 0 0 0 0 0 0 0 0 0 0 0 0 0 0 0 0 0 0 0 0 0 0 0 0 0 0 0
0 0 0 0 0 0 0 0 0 0 0 0 0 0 0 0 0 0 0 0 0 0 0 0 0 0 0 0 0 0 0 0 0
0 0 0 0 0 0 0 0 0 0 0 0 0 0 0 0 0 0 0 0 0 0 0 0 0 0 0 0 0 0 0 0 0
0 0 0 0 0 0 0 0 0 0 0 0 0 0 0 0 0 0 0 0 0 0 0 0 0 0 0 0 0 0 0 0 0
0 0 0 0 0 0 0 0 0 0 0 0 0 0 0 0 0 0 0 0 0 0 0 0 0 0 0 0 0 0 0 0 0
0 0 0 0 0 0 0 0 0 0 0 0 0 0 0 0 0 0 0 0 0 0 0 0 0 0 0 0 0 0 0 0 0
0 0 0 0 0 0 0 0 0 0 0 0 0 0 0 0 0 0 0 0 0 0 0 0 0 0 0 0 0 0 0 0 0
Wind_Speed_500mb
55 46 49 46 47 47 53 43 43 40 38 37 34 36 36 35 29 22 23 22 20 19 17 16 19 14 13 13 12 12 10 9 8
49 50 43 45 46 48 46 46 45 44 40 38 39 36 37 37 33 29 28 25 25 19 21 16 20 20 17 15 16 17 16 10 12
48 53 52 39 43 45 47 46 43 42 42 40 38 39 36 33 29 30 30 32 31 24 22 22 23 21 21 22 20 18 18 13 13
39 49 48 42 41 44 45 43 42 41 41 39 37 36 35 33 31 29 31 30 30 32 28 28 30 26 23 21 21 21 22 20 19
38 25 38 45 38 40 44 48 46 43 41 39 36 34 35 34 32 31 31 33 31 28 31 31 30 27 27 25 24 22 23 25 18
21 24 27 22 32 42 41 47 44 49 47 39 36 36 34 35 34 33 33 33 33 35 32 32 30 31 28 25 25 23 21 23 22
10 15 26 29 32 29 33 38 46 55 50 49 41 36 38 36 36 34 31 30 31 30 33 34 30 29 24 25 24 22 21 19 17
11 10 16 26 28 25 25 40 46 48 40 45 42 39 40 40 43 36 32 29 27 26 28 27 29 30 27 25 28 22 22 19 19
19 18 14 17 20 27 29 30 38 45 50 41 37 46 44 44 33 39 37 33 29 28 28 28 27 26 24 19 23 24 25 28 30
22 27 21 19 15 12 11 17 30 46 49 54 54 42 42 39 40 36 36 37 37 30 28 24 24 24 25 25 23 23 25 24 27
23 29 31 24 20 16 12 13 14 16 21 31 36 31 31 34 37 46 54 47 39 34 28 29 25 25 25 27 31 30 29 27 28
18 21 20 18 20 19 19 10 12 17 20 16 15 19 20 22 28 35 41 42 46 49 38 27 34 33 32 29 28 21 18 19 26
17 15 13 15 16 16 16 17 16 16 15 11 9 11 11 11 16 15 16 17 18 24 19 16 11 17 19 21 23 22 28 26 23
14 17 17 14 11 10 15 17 15 16 17 14 11 9 11 13 8 5 10 16 16 14 23 19 29 35 35 37 39 47 46 40 27
13 16 19 18 17 18 16 14 9 10 10 10 10 12 16 13 6 5 5 6 5 11 11 16 18 22 22 21 21 21 20 23 21
14 15 21 20 19 19 18 17 14 12 17 18 15 13 10 8 7 7 5 4 4 8 7 6 7 4 5 4 0 3 4 2 17
17 15 19 19 19 18 17 16 15 15 18 17 15 14 15 15 13 10 10 8 13 11 12 11 10 7 8 10 10 10 15 16 15
21 20 18 18 15 17 18 17 14 13 14 16 16 16 17 17 15 13 10 6 4 6 7 8 7 8 8 9 9 12 13 13 12
21 23 21 18 15 13 13 12 10 11 13 15 16 15 14 12 11 10 8 8 4 2 1 2 4 6 8 12 16 17 15 13 11
20 19 19 18 18 18 18 16 16 17 17 17 16 15 16 13 12 12 12 11 10 9 11 10 10 8 5 7 12 18 19 17 15
Wind_Direction_500mb
202 206 210 203 201 200 200 198 199 198 202 204 206 204 206 209 214 221 215 224 214 217 233 235 228 217 222 239 254 250 263 284 272
200 205 202 205 204 203 203 202 201 202 204 206 210 210 213 221 228 215 215 220 222 239 234 235 236 238 238 234 239 251 254 271 267
203 207 213 218 211 207 204 204 205 204 206 209 213 214 217 223 224 229 228 230 230 229 230 242 234 246 249 246 252 250 249 255 276
178 200 217 219 210 204 204 202 204 208 207 209 212 216 218 221 225 228 230 230 235 243 248 248 242 247 243 245 240 248 256 246 251
160 173 229 224 222 206 198 203 197 206 206 209 211 214 217 223 228 230 230 233 238 245 253 249 248 250 250 244 246 255 250 250 250
196 197 222 209 204 205 219 213 223 231 215 213 212 214 218 224 227 231 235 232 242 248 250 254 249 254 254 250 250 253 260 256 253
200 207 197 197 203 210 225 217 230 240 231 219 221 220 222 224 230 228 234 240 237 243 248 251 252 254 256 257 248 254 256 247 246
105 143 186 188 188 194 225 217 226 228 236 233 235 235 240 233 241 243 240 240 240 246 243 248 250 253 261 259 254 249 248 248 255
74 74 103 152 170 194 212 220 229 234 237 249 256 241 250 241 243 244 246 247 253 250 248 253 253 251 252 263 266 262 260 262 266
61 68 74 79 95 126 167 206 216 225 235 235 244 250 252 250 258 250 249 253 248 249 246 246 246 244 251 256 259 259 257 260 261
70 74 72 70 81 87 121 151 174 200 209 223 235 244 252 254 244 240 243 235 228 240 246 234 234 240 237 249 258 257 263 266 265
90 83 66 71 74 65 74 101 147 170 173 190 211 224 224 231 231 229 231 233 243 246 242 235 236 234 242 239 251 252 267 281 270
101 96 97 92 74 73 79 88 104 121 130 155 175 205 214 220 228 240 239 231 217 212 204 185 229 236 225 234 250 257 271 271 271
119 116 110 103 99 99 113 113 112 110 96 105 113 156 178 166 153 170 235 238 237 248 234 262 274 265 262 274 275 278 279 268 250
130 130 120 108 109 108 110 106 108 113 96 91 106 121 154 154 143 204 182 193 244 255 252 261 257 245 254 263 268 272 274 255 227
131 135 129 119 117 118 114 109 108 114 114 115 123 139 168 168 161 143 135 120 148 159 164 175 165 174 179 187 54 3 358 226 223
133 132 130 124 124 121 122 114 113 117 114 117 117 124 126 123 114 108 101 117 126 119 102 62 83 92 101 92 92 55 39 47 53
153 148 139 137 136 130 124 121 117 113 119 120 123 123 125 136 127 133 127 120 110 125 119 115 98 99 96 88 64 45 45 49 67
153 156 154 153 165 169 143 128 127 140 134 128 124 118 121 120 118 111 112 115 133 172 260 26 55 61 59 61 62 52 48 56 68
153 143 142 139 137 133 128 125 130 135 131 122 116 114 110 104 100 100 86 83 85 85 86 84 84 84 75 64 67 81 88 87 88
Wind_Speed_850mb
55 46 49 46 47 47 53 43 43 40 38 37 34 36 36 35 29 22 23 22 20 19 17 16 19 14 13 13 12 12 10 9 8
49 50 43 45 46 48 46 46 45 44 40 38 39 36 37 37 33 29 28 25 25 19 21 16 20 20 17 15 16 17 16 10 12
48 53 52 39 43 45 47 46 43 42 42 40 38 39 36 33 29 30 30 32 31 24 22 22 23 21 21 22 20 18 18 13 13
39 49 48 42 41 44 45 43 42 41 41 39 37 36 35 33 31 29 31 30 30 32 28 28 30 26 23 21 21 21 22 20 19
38 25 38 45 38 40 44 48 46 43 41 39 36 34 35 34 32 31 31 33 31 28 31 31 30 27 27 25 24 22 23 25 18
21 24 27 22 32 42 41 47 44 49 47 39 36 36 34 35 34 33 33 33 33 35 32 32 30 31 28 25 25 23 21 23 22
10 15 26 29 32 29 33 38 46 55 50 49 41 36 38 36 36 34 31 30 31 30 33 34 30 29 24 25 24 22 21 19 17
11 10 16 26 28 25 25 40 46 48 40 45 42 39 40 40 43 36 32 29 27 26 28 27 29 30 27 25 28 22 22 19 19
19 18 14 17 20 27 29 30 38 45 50 41 37 46 44 44 33 39 37 33 29 28 28 28 27 26 24 19 23 24 25 28 30
22 27 21 19 15 12 11 17 30 46 49 54 54 42 42 39 40 36 36 37 37 30 28 24 24 24 25 25 23 23 25 24 27
23 29 31 24 20 16 12 13 14 16 21 31 36 31 31 34 37 46 54 47 39 34 28 29 25 25 25 27 31 30 29 27 28
18 21 20 18 20 19 19 10 12 17 20 16 15 19 20 22 28 35 41 42 46 49 38 27 34 33 32 29 28 21 18 19 26
17 15 13 15 16 16 16 17 16 16 15 11 9 11 11 11 16 15 16 17 18 24 19 16 11 17 19 21 23 22 28 26 23
14 17 17 14 11 10 15 17 15 16 17 14 11 9 11 13 8 5 10 16 16 14 23 19 29 35 35 37 39 47 46 40 27
13 16 19 18 17 18 16 14 9 10 10 10 10 12 16 13 6 5 5 6 5 11 11 16 18 22 22 21 21 21 20 23 21
14 15 21 20 19 19 18 17 14 12 17 18 15 13 10 8 7 7 5 4 4 8 7 6 7 4 5 4 0 3 4 2 17
17 15 19 19 19 18 17 16 15 15 18 17 15 14 15 15 13 10 10 8 13 11 12 11 10 7 8 10 10 10 15 16 15
21 20 18 18 15 17 18 17 14 13 14 16 16 16 17 17 15 13 10 6 4 6 7 8 7 8 8 9 9 12 13 13 12
21 23 21 18 15 13 13 12 10 11 13 15 16 15 14 12 11 10 8 8 4 2 1 2 4 6 8 12 16 17 15 13 11
20 19 19 18 18 18 18 16 16 17 17 17 16 15 16 13 12 12 12 11 10 9 11 10 10 8 5 7 12 18 19 17 15
Wind_Direction_850mb
202 206 210 203 201 200 200 198 199 198 202 204 206 204 206 209 214 221 215 224 214 217 233 235 228 217 222 239 254 250 263 284 272
200 205 202 205 204 203 203 202 201 202 204 206 210 210 213 221 228 215 215 220 222 239 234 235 236 238 238 234 239 251 254 271 267
203 207 213 218 211 207 204 204 205 204 206 209 213 214 217 223 224 229 228 230 230 229 230 242 234 246 249 246 252 250 249 255 276
178 200 217 219 210 204 204 202 204 208 207 209 212 216 218 221 225 228 230 230 235 243 248 248 242 247 243 245 240 248 256 246 251
160 173 229 224 222 206 198 203 197 206 206 209 211 214 217 223 228 230 230 233 238 245 253 249 248 250 250 244 246 255 250 250 250
196 197 222 209 204 205 219 213 223 231 215 213 212 214 218 224 227 231 235 232 242 248 250 254 249 254 254 250 250 253 260 256 253
200 207 197 197 203 210 225 217 230 240 231 219 221 220 222 224 230 228 234 240 237 243 248 251 252 254 256 257 248 254 256 247 246
105 143 186 188 188 194 225 217 226 228 236 233 235 235 240 233 241 243 240 240 240 246 243 248 250 253 261 259 254 249 248 248 255
74 74 103 152 170 194 212 220 229 234 237 249 256 241 250 241 243 244 246 247 253 250 248 253 253 251 252 263 266 262 260 262 266
61 68 74 79 95 126 167 206 216 225 235 235 244 250 252 250 258 250 249 253 248 249 246 246 246 244 251 256 259 259 257 260 261
70 74 72 70 81 87 121 151 174 200 209 223 235 244 252 254 244 240 243 235 228 240 246 234 234 240 237 249 258 257 263 266 265
90 83 66 71 74 65 74 101 147 170 173 190 211 224 224 231 231 229 231 233 243 246 242 235 236 234 242 239 251 252 267 281 270
101 96 97 92 74 73 79 88 104 121 130 155 175 205 214 220 228 240 239 231 217 212 204 185 229 236 225 234 250 257 271 271 271
119 116 110 103 99 99 113 113 112 110 96 105 113 156 178 166 153 170 235 238 237 248 234 262 274 265 262 274 275 278 279 268 250
130 130 120 108 109 108 110 106 108 113 96 91 106 121 154 154 143 204 182 193 244 255 252 261 257 245 254 263 268 272 274 255 227
131 135 129 119 117 118 114 109 108 114 114 115 123 139 168 168 161 143 135 120 148 159 164 175 165 174 179 187 54 3 358 226 223
133 132 130 124 124 121 122 114 113 117 114 117 117 124 126 123 114 108 101 117 126 119 102 62 83 92 101 92 92 55 39 47 53
153 148 139 137 136 130 124 121 117 113 119 120 123 123 125 136 127 133 127 120 110 125 119 115 98 99 96 88 64 45 45 49 67
153 156 154 153 165 169 143 128 127 140 134 128 124 118 121 120 118 111 112 115 133 172 260 26 55 61 59 61 62 52 48 56 68
153 143 142 139 137 133 128 125 130 135 131 122 116 114 110 104 100 100 86 83 85 85 86 84 84 84 75 64 67 81 88 87 88